COSMOS 2251 DEB, 35028

Orbit data source: Space-Track

COSMOS 2251 DEB, 35028 is space debris in LEO originally from a launch on Wed, 16 Jun 1993 UTC launched from the Plesetsk Missile And Space Complex (PKMTR). The debris from Iridium 33, an American commercial communications satellite, has been tracked extensively since its accidental collision with the defunct Russian satellite Cosmos 2251 in 2009. This event, occurring at high speed in low Earth orbit (LEO), generated thousands of pieces of space debris, significantly increasing the risk of further collisions. The Iridium 33 debris cloud has impacted space traffic management and orbital debris mitigation strategies, making it a subject of ongoing study in space situational awareness.

Loading next visibility...
Identifier
35028, 1993-036AGR
Orbit
LEO
Country
Flag of CISCIS
Related business
Manufacturer
Unknown
Mission
Spacecraft
Bus & Motor
Unknown
Mass
Unknown
Launch date (UTC)
1993-06-16 (32 years ago)
Launch vehicle
Unknown
Launch site
Plesetsk Missile And Space Complex (PKMTR)
Object type
Payload
Rocket body
Debris
Shape & HBR
Unknown shape, 0.1 m
Radar Cross Section
Small (<0.1 m²)

Expand to show TLE details & history
Last TLE update: 2 days ago

TLE from 2 days ago
0 COSMOS 2251 DEB
1 35028U 93036AGR 25285.73126291  .00000756  00000-0  16881-3 0  9997
2 35028  74.0405  26.7471 0083427 177.2767 334.2029 14.56486818873976
Epoch: 2025-10-12T17:33Z
TLE epoch observation values (Epoch: 2025-10-12T17:33:01.115Z)
Latitude
27.77597°
Longitude
-86.66772°
Altitude
654.541 km
Speed
7.561 km/s
True Right ascension
13h 12m 31s
True Declination
27° 37' 56"
Sunlit
Object was in daylight at epoch
Visualization orbit readout
Latitude
Unknown
Longitude
Unknown
Altitude
Unknown
Speed
Unknown
Apparent Right ascension
Unknown
Apparent Declination
Unknown
Sunlit
N/A
Visualization observer readout
Local Sidereal Time
07:30:25
Azimuth
Unknown
Elevation
Unknown
Doppler factor
Unknown
Orbital elements
Apogee altitude
761.21 km
Perigee altitude
643.073 km
Semi-major axis
7,080.278 km
Eccentricity
0.00834
Inclination
74.0405°
RAAN
26.7471°
Arg. of periapsis
177.2767°
True anomaly
333.78292°
Mean anomaly
334.2029°
Eccentric anomaly
333.99331°
Mean motion
3.64307 °/min
Orbital period
98.82 mins
BSTAR
0.00016881

Documentation

Showing up to 5 results
|